Torna al catalogo

SL-14 DEB

AttivoPO
NORAD 19580·DEBRIS·🇷🇺 Russia

Lanciato Oct 26, 1978 da Plesetsk Cosmodrome

Loading…

Prossimi Passaggi (prossime 24 ore)

TLE

AggiornatoSource: Space-Track

Epoca: Sep 14, 2026, 10:22 UTC

1 19580U 78100AL  26257.43240332  .00000102  00000-0  47696-3 0  9990
2 19580  82.6497 246.8318 0301622 292.0576 224.0307 12.56657742707825

Traccia SL-14 DEB in tempo reale con AllMySat

Download on the App Store